Location: Marcé
(47.5801°N, 0.3280°W)
Time: 17:03:24
(UTC+01:00)

Vanguard 2 Rocket - Pass Details

Date: 16 December 2021
Orbit: 553 x 3325 km, 32.9° (Epoch: 23 January)

Event Time Altitude Azimuth Distance (km) Brightness Sun altitude
Rises 17:50:33 0° 238° (WSW) 2,732 12.0 -6.6°
Reaches altitude 10° 17:53:45 10° 208° (SSW) 1,956 9.6 -7.1°
Maximum altitude 17:55:44 13° 180° (S) 1,893 8.9 -7.4°
Drops below altitude 10° 17:57:58 10° 153° (SSE) 2,259 8.9 -7.7°
Sets 18:02:20 0° 127° (SE) 3,637 9.7 -8.4°
